User: anonymous   Login
Location: Vancouver
(49.2500°N, 123.1330°W)
Time: 10:08:26
(UTC-07:00)
Language:

ERS-2 - Orbit

View from above orbital plane
View from above orbital plane
View from above satellite
View from above satellite

Ground track
Ground track

The orbit data is extracted from the following two-line orbital elements,

1 23560U 95021A   15240.22356016  .00005180  00000-0  27102-3 0  9999
2 23560 098.5105 137.7642 0004637 035.1192 325.0342 15.16369715 75350
Epoch (UTC): 28 August 2015 05:21:55
Eccentricity: 0.0004637
inclination: 98.5105°
perigee height: 513 km
apogee height: 520 km
right ascension of ascending node: 137.7642°
argument of perigee: 35.1192°
revolutions per day: 15.16369715
mean anomaly at epoch: 325.0342°
orbit number at epoch: 7535

The dashed part of the orbit path shows where the satellite is in the earth's shadow,  

DLR